| time (UTC) | temp C | wind direction | speed KPH | gust KPH | rain 1hr cm | rain 24hr cm | rain mn cm | humidity % | barometer mb |
| 20260505041601 | 18 | 132 | 1.6 | 6.4 | 0.00 | 0.00 | 0.00 | 58 | 1008.3 |
| 20260505040617 | 18 | 121 | 1.6 | 3.2 | 0.00 | 0.00 | 0.00 | 58 | 1008.3 |
| 20260505035635 | 18 | 90 | 0.0 | 0.0 | 0.00 | 0.00 | 0.00 | 59 | 1008.3 |
| 20260505034627 | 18 | 111 | 1.6 | 3.2 | 0.00 | 0.00 | 0.00 | 58 | 1008.3 |
| 20260505033634 | 18 | 155 | 1.6 | 3.2 | 0.00 | 0.00 | 0.00 | 59 | 1008.2 |
| 20260505032632 | 18 | 90 | 0.0 | 1.6 | 0.00 | 0.00 | 0.00 | 58 | 1008.0 |
| 20260505031638 | 18 | 107 | 0.0 | 0.0 | 0.00 | 0.00 | 0.00 | 59 | 1007.9 |
| 20260505030656 | 18 | 176 | 0.0 | 0.0 | 0.00 | 0.00 | 0.00 | 56 | 1007.9 |
| 20260505025704 | 19 | 176 | 0.0 | 0.0 | 0.00 | 0.00 | 0.00 | 56 | 1007.9 |
| 20260505024658 | 19 | 176 | 0.0 | 0.0 | 0.00 | 0.00 | 0.00 | 54 | 1007.8 |
| 20260505023630 | 19 | 127 | 1.6 | 9.7 | 0.00 | 0.00 | 0.00 | 54 | 1007.9 |
| 20260505022611 | 20 | 176 | 1.6 | 9.7 | 0.00 | 0.00 | 0.00 | 53 | 1007.9 |
| 20260505021616 | 20 | 161 | 1.6 | 4.8 | 0.00 | 0.00 | 0.00 | 52 | 1007.7 |
| 20260505020607 | 20 | 171 | 1.6 | 8.0 | 0.00 | 0.00 | 0.00 | 51 | 1007.9 |
| 20260505015623 | 20 | 190 | 3.2 | 8.0 | 0.00 | 0.00 | 0.00 | 50 | 1007.8 |
| 20260505014648 | 20 | 155 | 1.6 | 3.2 | 0.00 | 0.00 | 0.00 | 49 | 1007.9 |
| 20260505012517 | 21 | 192 | 1.6 | 4.8 | 0.00 | 0.00 | 0.00 | 46 | 1007.6 |
| 20260505005217 | 21 | 175 | 3.2 | 8.0 | 0.00 | 0.00 | 0.00 | 44 | 1007.4 |
| 20260505004222 | 22 | 248 | 4.8 | 9.7 | 0.00 | 0.00 | 0.00 | 43 | 1007.4 |
| 20260505002012 | 22 | 188 | 4.8 | 11.3 | 0.00 | 0.00 | 0.00 | 42 | 1007.2 |
| 20260504235828 | 22 | 192 | 6.4 | 19.3 | 0.00 | 0.00 | 0.00 | 41 | 1007.1 |
| 20260504234829 | 23 | 200 | 6.4 | 20.9 | 0.00 | 0.00 | 0.00 | 41 | 1007.0 |
| 20260504233755 | 23 | 216 | 9.7 | 24.1 | 0.00 | 0.00 | 0.00 | 40 | 1006.9 |
| 20260504232731 | 23 | 217 | 9.7 | 24.1 | 0.00 | 0.00 | 0.00 | 39 | 1006.8 |
| 20260504231748 | 23 | 186 | 9.7 | 22.5 | 0.00 | 0.00 | 0.00 | 39 | 1006.7 |
| 20260504230729 | 24 | 208 | 11.3 | 20.9 | 0.00 | 0.00 | 0.00 | 39 | 1006.6 |
| 20260504225655 | 24 | 221 | 9.7 | 20.9 | 0.00 | 0.00 | 0.00 | 39 | 1006.6 |
| 20260504224707 | 24 | 217 | 9.7 | 25.7 | 0.00 | 0.00 | 0.00 | 39 | 1006.5 |
| 20260504223720 | 24 | 147 | 11.3 | 27.4 | 0.00 | 0.00 | 0.00 | 39 | 1006.6 |
| 20260504222650 | 24 | 178 | 11.3 | 27.4 | 0.00 | 0.00 | 0.00 | 38 | 1006.6 |
| 20260504221712 | 24 | 188 | 11.3 | 20.9 | 0.00 | 0.00 | 0.00 | 39 | 1006.6 |
| 20260504220646 | 24 | 157 | 9.7 | 24.1 | 0.00 | 0.00 | 0.00 | 39 | 1006.5 |
| 20260504215641 | 23 | 199 | 12.9 | 24.1 | 0.00 | 0.00 | 0.00 | 38 | 1006.5 |
| 20260504214641 | 23 | 194 | 9.7 | 24.1 | 0.00 | 0.00 | 0.00 | 39 | 1006.6 |
| 20260504213658 | 23 | 150 | 9.7 | 20.9 | 0.00 | 0.00 | 0.00 | 39 | 1006.7 |
| 20260504212720 | 23 | 186 | 12.9 | 20.9 | 0.00 | 0.00 | 0.00 | 37 | 1006.6 |
| 20260504210615 | 24 | 173 | 11.3 | 24.1 | 0.00 | 0.00 | 0.00 | 36 | 1006.6 |
| 20260504205605 | 24 | 186 | 9.7 | 19.3 | 0.00 | 0.00 | 0.00 | 36 | 1006.7 |
| 20260504204541 | 24 | 150 | 11.3 | 22.5 | 0.00 | 0.00 | 0.00 | 35 | 1006.6 |
| 20260504203545 | 25 | 161 | 9.7 | 24.1 | 0.00 | 0.00 | 0.00 | 34 | 1006.7 |
| 20260504202552 | 24 | 37 | 9.7 | 24.1 | 0.00 | 0.00 | 0.00 | 35 | 1006.8 |
| 20260504201525 | 24 | 193 | 9.7 | 22.5 | 0.00 | 0.00 | 0.00 | 35 | 1006.9 |
| 20260504195405 | 24 | 185 | 14.5 | 32.2 | 0.00 | 0.00 | 0.00 | 35 | 1007.1 |
| 20260504194429 | 24 | 163 | 14.5 | 29.0 | 0.00 | 0.00 | 0.00 | 35 | 1007.4 |
| 20260504193405 | 24 | 259 | 12.9 | 29.0 | 0.00 | 0.00 | 0.00 | 34 | 1007.4 |
| 20260504192401 | 23 | 174 | 14.5 | 27.4 | 0.00 | 0.00 | 0.00 | 35 | 1007.5 |
| 20260504191340 | 23 | 211 | 11.3 | 25.7 | 0.00 | 0.00 | 0.00 | 34 | 1007.8 |
| 20260504190328 | 23 | 234 | 12.9 | 25.7 | 0.00 | 0.00 | 0.00 | 33 | 1007.8 |
| 20260504184238 | 23 | 208 | 9.7 | 24.1 | 0.00 | 0.00 | 0.00 | 34 | 1008.0 |
| 20260504175819 | 23 | 232 | 9.7 | 30.6 | 0.00 | 0.00 | 0.00 | 35 | 1008.8 |
| 20260504173639 | 22 | 199 | 9.7 | 22.5 | 0.00 | 0.00 | 0.00 | 37 | 1009.1 |
| 20260504171532 | 22 | 223 | 9.7 | 25.7 | 0.00 | 0.00 | 0.00 | 38 | 1009.3 |
| 20260504170525 | 21 | 142 | 9.7 | 24.1 | 0.00 | 0.00 | 0.00 | 39 | 1009.5 |
| 20260504160319 | 20 | 179 | 9.7 | 22.5 | 0.00 | 0.00 | 0.00 | 41 | 1010.6 |
| 20260504150249 | 18 | 186 | 9.7 | 20.9 | 0.00 | 0.00 | 0.00 | 44 | 1011.4 |
| 20260504141310 | 16 | 182 | 4.8 | 14.5 | 0.00 | 0.00 | 0.00 | 48 | 1011.7 |
| 20260504140322 | 15 | 150 | 1.6 | 6.4 | 0.00 | 0.00 | 0.00 | 51 | 1012.0 |
| 20260504130249 | 10 | 265 | 0.0 | 1.6 | 0.00 | 0.00 | 0.00 | 67 | 1012.5 |
| 20260504110320 | 3 | 140 | 0.0 | 0.0 | 0.00 | 0.00 | 0.00 | 85 | 1013.0 |
| 20260504100232 | 2 | 140 | 0.0 | 0.0 | 0.00 | 0.00 | 0.00 | 85 | 1013.2 |
| 20260504081058 | 2 | 140 | 0.0 | 0.0 | 0.00 | 0.00 | 0.00 | 84 | 1013.5 |
| 20260504070109 | 3 | 140 | 0.0 | 0.0 | 0.00 | 0.00 | 0.00 | 80 | 1013.8 |
| 20260504050608 | 6 | 146 | 0.0 | 1.6 | 0.00 | 0.00 | 0.00 | 72 | 1014.1 |
| 20260504045600 | 6 | 153 | 0.0 | 0.0 | 0.00 | 0.00 | 0.00 | 72 | 1014.1 |
| 20260504044603 | 6 | 154 | 0.0 | 0.0 | 0.00 | 0.00 | 0.00 | 72 | 1014.1 |
| 20260504043549 | 6 | 154 | 0.0 | 0.0 | 0.00 | 0.00 | 0.00 | 72 | 1014.0 |
| 20260504042515 | 6 | 150 | 0.0 | 0.0 | 0.00 | 0.00 | 0.00 | 71 | 1014.0 |